カタログに戻る

STARLINK-32029

運用中通信VLEO
NORAD 60145·PAYLOAD·🇺🇸 United States

打ち上げ Jun 27, 2024 から Cape Canaveral Space Force Station

Loading…

次のパス (今後24時間)

TLE

最新Source: CelesTrak SupGP

元期: Sep 14, 2026, 21:45 UTC

1 60145C 24120L   26257.90673611 -.00029605  00000+0 -87424-3 0  2578
2 60145  53.1579 157.6801 0001108  88.5093 264.3665 15.34421497    12

AllMySatでSTARLINK-32029をリアルタイム追跡

Download on the App Store